Morgantown, WV

11:44 AM EDT on June 23, 2017 (GMT -0400)
Morgantown Municipal-Hart

Weather History for KMGW - December, 2012

Change the Weather History Date:

Thursday, December 20, 2012

  Actual Average Record
Temperature  
Mean Temperature 44 °F 34 °F  
Max Temperature 52 °F 41 °F 64 °F (1957)
Min Temperature 35 °F 26 °F 0 °F (1963)
Degree Days  
Heating Degree Days 21 32  
Month to date heating degree days 375 579  
Since 1 July heating degree days 1496 1627  
Cooling Degree Days 0 0  
Month to date cooling degree days 0 0  
Year to date cooling degree days 1141 814  
Moisture  
Dew Point 37 °F    
Average Humidity 71    
Maximum Humidity 92    
Minimum Humidity 50    
Precipitation  
Precipitation 0.71 in 0.09 in 0.83 in (1973)
Month to date precipitation 4.06 1.94  
Year to date precipitation 34.53 40.86  
Sea Level Pressure  
Sea Level Pressure 29.72 in    
Wind  
Wind Speed 8 mph (SSE)    
Max Wind Speed 20 mph    
Max Gust Speed 29 mph    
Visibility 8 miles    
Events Rain    
T = Trace of Precipitation, MM = Missing Value Source: NWS Daily Summary

Daily Weather History Graph

Daily Weather History Graph

Search for Another Location

Airport or City:

Trip Planner

Search our weather history database for the weather conditions in past years. The results will help you decide how hot, cold, wet, or windy it might be!

Date:

Astronomy

Dec. 20, 2012 Rise Set
Actual Time 7:36 AM EST 4:58 PM EST
Civil Twilight 7:06 AM EST 5:28 PM EST
Nautical Twilight 6:32 AM EST 6:02 PM EST
Astronomical Twilight 5:59 AM EST 6:35 PM EST
Moon 12:14 PM EST (12/20) 12:22 AM EST (12/20)
Length of Visible Light 10h 22m
Length of Day
9h 21m
First Quarter, 55% of the Moon is Illuminated
Dec 20
First Quarter
Dec 28
Full
Jan 4
Last Quarter
Jan 11
New
Jan 18
First Quarter

Hourly Weather History & Observations

Time (EST) Temp. Windchill Dew Point Humidity Pressure Visibility Wind Dir Wind Speed Gust Speed Precip Events Conditions
12:53 AM 37.0 °F - 34.0 °F 89% 30.14 in 7.0 mi Calm Calm - N/A   Clear
1:53 AM 36.0 °F 32.1 °F 34.0 °F 93% 30.11 in 8.0 mi NNE 4.6 mph - N/A   Clear
2:53 AM 39.9 °F - 33.1 °F 77% 30.09 in 10.0 mi Calm Calm - N/A   Clear
3:53 AM 41.0 °F 39.0 °F 32.0 °F 70% 30.07 in 10.0 mi ESE 3.5 mph - N/A   Clear
4:53 AM 41.0 °F 37.1 °F 32.0 °F 70% 30.03 in 10.0 mi ESE 5.8 mph - N/A   Clear
5:53 AM 43.0 °F 39.5 °F 30.0 °F 60% 30.00 in 10.0 mi Variable 5.8 mph - N/A   Clear
6:53 AM 44.1 °F 40.1 °F 30.0 °F 58% 29.97 in 10.0 mi Variable 6.9 mph - N/A   Clear
7:53 AM 44.1 °F 39.0 °F 30.0 °F 58% 29.91 in 10.0 mi ESE 9.2 mph - N/A   Clear
8:53 AM 45.0 °F 40.6 °F 30.0 °F 56% 29.86 in 10.0 mi ESE 8.1 mph 18.4 mph N/A   Clear
9:53 AM 48.0 °F - 30.9 °F 52% 29.84 in 10.0 mi Variable 5.8 mph - N/A   Clear
10:53 AM 48.0 °F - 32.0 °F 54% 29.83 in 10.0 mi SE 10.4 mph 17.3 mph N/A   Clear
11:53 AM 48.9 °F - 32.0 °F 52% 29.83 in 10.0 mi SE 16.1 mph 20.7 mph N/A   Overcast
12:53 PM 48.9 °F - 35.1 °F 59% 29.77 in 6.0 mi SE 11.5 mph - 0.01 in Rain Light Rain
1:53 PM 46.9 °F - 39.9 °F 77% 29.68 in 5.0 mi SE 11.5 mph 20.7 mph 0.11 in Rain Light Rain
2:53 PM 48.0 °F - 41.0 °F 77% 29.63 in 10.0 mi SSE 9.2 mph - 0.02 in Rain Light Rain
3:53 PM 48.0 °F - 43.0 °F 83% 29.60 in 4.0 mi SE 11.5 mph 18.4 mph 0.10 in Rain Rain
4:53 PM 46.9 °F - 43.0 °F 86% 29.57 in 6.0 mi South 4.6 mph - 0.12 in Rain Light Rain
5:53 PM 46.9 °F - 43.0 °F 86% 29.54 in 6.0 mi SE 8.1 mph - 0.09 in Rain Rain
6:53 PM 48.0 °F - 42.1 °F 80% 29.48 in 10.0 mi South 11.5 mph 19.6 mph 0.02 in   Overcast
7:53 PM 51.1 °F - 42.1 °F 71% 29.46 in 10.0 mi South 8.1 mph - N/A   Overcast
8:53 PM 48.9 °F - 43.0 °F 80% 29.44 in 6.0 mi Calm Calm - 0.04 in Rain Rain
9:25 PM 48.2 °F - 44.6 °F 87% 29.42 in 4.0 mi SSE 8.1 mph - 0.06 in Rain Rain
9:53 PM 46.9 °F - 44.1 °F 90% 29.42 in 10.0 mi Calm Calm - 0.07 in   Overcast
10:11 PM 46.4 °F 44.3 °F 44.6 °F 93% 29.42 in 10.0 mi SSW 4.6 mph - 0.00 in Rain Light Rain
10:53 PM 46.9 °F - 44.1 °F 90% 29.39 in 3.0 mi SSE 17.3 mph 26.5 mph 0.09 in Rain Rain
11:13 PM 46.4 °F 41.5 °F 42.8 °F 87% 29.41 in 6.0 mi WSW 10.4 mph 28.8 mph 0.03 in Rain Light Rain
11:53 PM 42.1 °F 36.1 °F 36.0 °F 79% 29.46 in 10.0 mi SW 10.4 mph 20.7 mph 0.04 in   Overcast